Lid_Strength_Index
4 3 3 3 3 4 4 7 8 14 14 13 13 10 7 5 5 4 4 7 7 6 6 5 5 5 5 5 5 5 5 5 5 5 5 5 5 5
4 4 4 5 5 4 5 6 7 8 12 12 12 11 9 7 6 5 5 7 8 8 7 7 6 6 6 6 6 6 6 6 7 6 6 6 6 5
3 4 5 6 6 6 6 6 7 8 10 13 11 11 10 9 7 6 7 7 7 8 8 8 8 8 8 8 7 7 8 8 8 7 7 7 7 7
3 3 5 6 7 7 7 7 8 7 9 15 12 11 10 9 8 9 9 9 8 9 9 9 9 9 9 9 9 9 9 9 9 8 8 8 8 7
1 2 3 5 7 7 7 7 7 8 9 13 13 11 11 10 10 10 10 10 9 9 10 10 10 10 11 11 11 11 11 11 10 10 10 10 9 9
1 1 2 4 6 6 8 8 8 9 10 12 13 13 12 11 12 12 13 11 11 11 10 11 11 11 12 12 12 12 12 12 12 12 12 12 11 11
2 1 2 3 5 6 6 8 9 10 11 13 13 14 14 14 14 13 14 13 12 12 12 12 12 12 12 13 13 13 13 13 13 13 13 13 13 12
2 2 1 4 5 8 8 8 9 10 11 12 13 14 14 14 13 14 14 15 16 12 14 14 12 13 12 12 13 14 14 14 14 14 14 13 13 12
3 2 2 3 5 6 8 9 10 10 11 10 12 12 13 13 13 13 13 14 14 13 13 15 12 14 12 13 14 14 14 14 13 13 13 13 13 13
3 2 2 2 4 6 7 8 9 10 10 9 11 11 11 11 11 11 12 13 13 13 13 16 13 14 13 13 14 14 14 14 13 13 13 13 13 13
3 4 1 2 6 6 7 9 9 10 10 10 10 10 11 11 11 12 14 15 16 14 13 14 14 15 14 14 14 14 13 13 13 13 13 13 13 13
6 5 6 3 7 8 7 8 10 10 11 11 11 11 11 12 12 12 12 14 15 16 13 14 15 14 16 13 13 13 13 13 13 13 13 12 12 11
7 6 5 7 7 7 6 7 8 10 11 13 12 12 13 13 13 12 12 12 14 14 13 13 15 14 14 15 13 12 12 13 12 12 12 12 11 11
9 8 8 7 7 8 7 8 8 9 11 12 13 13 13 13 13 13 12 12 12 12 12 12 14 13 14 14 15 12 11 11 11 12 11 11 11 13
10 9 8 8 7 8 8 8 10 10 10 12 13 13 13 13 13 13 13 13 12 12 12 12 13 12 12 13 13 13 13 12 11 11 11 11 11 11
10 9 9 10 9 9 10 10 10 10 10 11 12 12 13 13 13 13 14 13 14 14 12 11 11 11 11 11 12 12 12 13 11 10 9 10 10 10
10 10 10 10 10 11 10 10 10 10 11 11 11 12 13 13 14 13 13 13 14 15 14 12 11 10 10 11 12 12 12 11 10 10 10 11 11 10
10 10 11 10 11 11 11 11 10 11 10 11 11 12 13 14 14 13 13 13 15 14 14 13 13 13 13 12 10 11 10 10 9 10 11 11 12 10
10 10 11 11 10 11 11 11 11 11 11 12 12 12 13 13 13 13 12 13 14 14 14 14 13 13 14 15 12 11 10 10 11 12 11 11 11 10
10 11 11 11 11 11 11 11 12 12 12 12 12 12 12 12 12 13 13 13 13 13 14 12 12 11 11 12 13 11 12 10 11 12 12 10 11 14
11 11 10 11 11 11 12 12 12 12 12 12 12 11 11 11 12 12 12 13 13 13 13 13 11 10 9 10 13 13 12 11 10 10 11 11 12 12
11 12 11 11 11 12 12 12 12 12 12 12 11 11 11 11 11 12 12 12 12 12 12 11 11 10 11 12 13 13 13 12 13 13 11 12 10 13
11 11 11 10 11 11 11 12 12 12 12 11 11 11 11 11 11 11 12 12 12 12 12 13 12 11 12 11 12 12 13 14 13 14 13 14 13 13